Location: Doschendorf
(50.0069°N, 11.0602°E)
Time: 18:31:16
(UTC+00:00)

Meteor 1-25 Rocket - Pass Details

Date: 17 November 2019
Orbit: 836 x 892 km, 81.2° (Epoch: 13 December)

Event Time Altitude Azimuth Distance (km) Brightness Sun altitude
Rises 17:37:55 0° 350° (N) 3,426 7.4 -20.4°
Reaches altitude 10° 17:40:24 10° 355° (N) 2,493 6.6 -20.8°
Maximum altitude 17:45:57 55° 73° (ENE) 1,031 4.2 -21.7°
Enters shadow 17:48:24 32° 135° (SE) 1,439 5.0 -22.0°
